Volver al catálogo

DELTA 1 DEB

ActivoSSO
NORAD 12537·DEBRIS·🇺🇸 United States

Lanzado Jul 29, 1976 desde Vandenberg Space Force Base

Loading…

Próximos Pases (próximas 24 horas)

TLE

ActualizadoSource: Space-Track

Época: Sep 14, 2026, 11:44 UTC

1 12537U 76077DS  26257.48956817 -.00000037  00000-0  52193-4 0  9990
2 12537 102.3232 216.5521 0161204 120.0574 319.4185 12.11634860 47642

Sigue DELTA 1 DEB en tiempo real con AllMySat

Download on the App Store